Flag for Poland Weather past 2 weeks in Jastrzębie Zdrój, Poland

Now
60 °F

Fog.


Feels Like: 60 °F
Forecast: 50 / 60 °F
Wind: 2 mph from Northeast

Location: Ostrava / Mosnov

Current Time: Oct 1, 2014 at 6:39:42 PM

Latest Report: Oct 1, 2014 at 6:00 PM


Visibility: 3 mi

Pressure: 30.29 "Hg

Humidity: 92%

Dew point: 58 °F

Location of Jastrzębie ZdrójLocation

Historic Weather in Jastrzębie Zdrój — Graph

°F

Jastrzębie Zdrój temperature yesterday

Maximum temperature yesterday: 68 °F (at 2:00 PM)
Minimum temperature yesterday: 47 °F (at 6:00 AM)
Average temperature yesterday: 58 °F

Past Weeks' High & Low Weather Summary

 TemperatureHumidityPressure
High72 °F (Sep 19, 2:00 PM)99% (Sep 17, 8:00 AM)30.44 "Hg (Sep 17, 8:00 AM)
Low36 °F (Sep 24, 5:00 AM)38% (Sep 28, 3:00 PM)29.75 "Hg (Sep 22, 3:00 AM)
Average56 °F81%30.11 "Hg
* Reported Sep 16 5:00 PM — Oct 1 5:00 PM, Jastrzębie Zdrój, Weather by CustomWeather, © 2014

Note: Actual official high and low records may vary slightly from our data, if they occured in-between our weather recording intervals... More about our weather records

Advertising

Jastrzębie Zdrój weather history for previous 24 hours

 ConditionsComfort  
Time TempWeatherWind HumidityBarometerVisibility
5:00 PM
Oct 1
61 °FOvercast.3 mph89%30.28 "Hg3 mi
4:00 PM61 °FLight rain. Low clouds.3 mph89%30.27 "Hg3 mi
3:00 PM61 °FLow clouds.3 mph91%30.28 "Hg2 mi
2:00 PM62 °FLight rain. Low clouds.3 mph92%30.28 "Hg2 mi
1:00 PM61 °FLight rain. Low clouds.N/A90%30.29 "Hg2 mi
12:00 PM61 °FLight rain. Low clouds.N/A91%30.30 "Hg2 mi
11:00 AM60 °FLight rain. Overcast.1 mph94%30.30 "Hg1 mi
10:00 AM60 °FLight rain. Overcast.1 mph95%30.29 "Hg2 mi
9:00 AM59 °FLight rain. Overcast.1 mph97%30.29 "Hg2 mi
8:00 AM59 °FFog.2 mph98%30.29 "Hg2 mi
7:00 AM58 °FFog.2 mph98%30.28 "Hg2 mi
6:00 AM58 °FOvercast.2 mph98%30.28 "Hg2 mi
5:00 AM58 °FLight rain. Overcast.1 mph98%30.28 "Hg2 mi
4:00 AM58 °FLight rain. Overcast.2 mph96%30.28 "Hg2 mi
3:00 AM58 °FLight rain. Overcast.1 mph96%30.28 "Hg4 mi
2:00 AM58 °FLight rain. Overcast.3 mph95%30.28 "Hg4 mi
1:00 AM59 °FLight rain. Overcast.3 mph92%30.27 "Hg5 mi
12:00 AM59 °FOvercast.3 mph90%30.27 "Hg12 mi
11:00 PM
Sep 30
60 °FOvercast.3 mph87%30.27 "Hg12 mi
10:00 PM60 °FOvercast.3 mph89%30.27 "Hg12 mi
9:00 PM60 °FOvercast.3 mph86%30.26 "Hg12 mi
8:00 PM60 °FOvercast.3 mph88%30.26 "Hg11 mi
7:00 PM61 °FOvercast.5 mph84%30.26 "Hg9 mi
6:00 PM65 °FOvercast.3 mph76%30.25 "Hg11 mi
Weather by CustomWeather, © 2014

See weather overviewHow to use our weather pages